NI4CE-10 Weather Reports


time (UTC)temp
F
wind
direction
speed
knots
gust
knots
rain 1hr
in
rain 24hr
in
rain mn
in
humidity
%
barometer
mb
20260510153017 90 205 3.5 7.8 0.00 0.00 0.00 100 1019.7
20260510152720 90 254 5.2 7.8 0.00 0.00 0.00 100 1019.7
20260510152517 90 254 5.2 7.8 0.00 0.00 0.00 100 1019.7
20260510152325 90 257 3.5 7.8 0.00 0.00 0.00 100 1019.7
20260510152254 90 257 3.5 7.8 0.00 0.00 0.00 100 1019.7
20260510152018 90 257 3.5 7.8 0.00 0.00 0.00 100 1019.7
20260510151738 90 230 5.2 9.6 0.00 0.00 0.00 100 1019.6
20260510151518 90 230 5.2 9.6 0.00 0.00 0.00 100 1019.6
20260510151017 89 191 4.3 6.1 0.00 0.00 0.00 100 1019.5
20260510150904 90 222 3.5 7.8 0.00 0.00 0.00 100 1019.6
20260510150517 90 222 3.5 7.8 0.00 0.00 0.00 100 1019.6
20260510150331 89 213 7.0 7.8 0.00 0.00 0.00 100 1019.5
20260510150017 88 172 2.6 8.7 0.00 0.00 0.00 100 1019.5
20260510145517 89 213 7.0 7.8 0.00 0.00 0.00 100 1019.5
20260510145220 88 226 3.5 9.6 0.00 0.00 0.00 100 1019.5
20260510145017 88 226 3.5 9.6 0.00 0.00 0.00 100 1019.5
20260510144748 87 233 7.0 9.6 0.00 0.00 0.00 100 1019.5
20260510144517 87 233 7.0 9.6 0.00 0.00 0.00 100 1019.5
20260510144017 89 195 7.0 8.7 0.00 0.00 0.00 100 1019.5
20260510143945 87 180 5.2 7.0 0.00 0.00 0.00 100 1019.5
20260510143730 89 254 8.7 8.7 0.00 0.00 0.00 100 1019.5
20260510143518 89 254 8.7 8.7 0.00 0.00 0.00 100 1019.5
20260510143018 89 234 5.2 8.7 0.00 0.00 0.00 100 1019.5
20260510142518 87 210 4.3 6.1 0.00 0.00 0.00 100 1019.5
20260510142252 87 180 5.2 7.0 0.00 0.00 0.00 100 1019.5
20260510142018 87 180 5.2 7.0 0.00 0.00 0.00 100 1019.5
20260510141803 87 205 0.9 7.0 0.00 0.00 0.00 100 1019.5
20260510141518 87 205 0.9 7.0 0.00 0.00 0.00 100 1019.5
20260510141018 87 194 2.6 7.8 0.00 0.00 0.00 100 1019.3
20260510140518 87 217 2.6 5.2 0.00 0.00 0.00 100 1019.3
20260510140018 87 180 2.6 4.3 0.00 0.00 0.00 100 1019.2
20260510135843 87 157 2.6 4.3 0.00 0.00 0.00 100 1019.2
20260510135518 87 157 2.6 4.3 0.00 0.00 0.00 100 1019.2
20260510135018 86 198 0.0 4.3 0.00 0.00 0.00 100 1019.2
20260510135002 85 247 2.6 4.3 0.00 0.00 0.00 100 1019.2
20260510134518 85 247 2.6 4.3 0.00 0.00 0.00 100 1019.2
20260510134018 84 217 2.6 4.3 0.00 0.00 0.00 100 1019.2
20260510133518 84 226 1.7 2.6 0.00 0.00 0.00 100 1019.3
20260510133019 83 202 1.7 2.6 0.00 0.00 0.00 100 1019.2
20260510132518 82 57 0.0 0.0 0.00 0.00 0.00 100 1019.2
20260510132018 82 57 0.0 0.0 0.00 0.00 0.00 100 1019.3
20260510131716 80 57 0.0 0.0 0.00 0.00 0.00 100 1019.2
20260510131518 80 57 0.0 0.0 0.00 0.00 0.00 100 1019.2
20260510131246 80 57 0.0 0.0 0.00 0.00 0.00 100 1019.3
20260510131018 80 57 0.0 0.0 0.00 0.00 0.00 100 1019.3
20260510130518 80 57 0.0 0.0 0.00 0.00 0.00 100 1019.2
20260510130134 79 57 0.0 0.0 0.00 0.00 0.00 100 1019.2
20260510130018 79 57 0.0 0.0 0.00 0.00 0.00 100 1019.2
20260510125518 79 57 0.0 0.0 0.00 0.00 0.00 100 1019.1
20260510125018 78 57 0.0 0.0 0.00 0.00 0.00 100 1019.1
20260510124518 77 57 0.0 0.0 0.00 0.00 0.00 100 1019.1
20260510124018 77 57 0.0 0.0 0.00 0.00 0.00 100 1019.1
20260510123655 77 57 0.0 0.0 0.00 0.00 0.00 100 1019.1
20260510123518 77 57 0.0 0.0 0.00 0.00 0.00 100 1019.1
20260510123150 76 57 0.0 0.0 0.00 0.00 0.00 100 1019.0
20260510123018 76 57 0.0 0.0 0.00 0.00 0.00 100 1019.0
20260510122802 76 57 0.0 0.0 0.00 0.00 0.00 100 1018.9
20260510122518 76 57 0.0 0.0 0.00 0.00 0.00 100 1018.9
20260510122018 75 57 0.0 0.0 0.00 0.00 0.00 100 1018.8
20260510121518 75 57 0.0 0.0 0.00 0.00 0.00 100 1018.8
20260510121018 74 57 0.0 0.0 0.00 0.00 0.00 100 1018.8
20260510120809 74 57 0.0 0.0 0.00 0.00 0.00 100 1018.6
20260510120518 74 57 0.0 0.0 0.00 0.00 0.00 100 1018.6
20260510120018 74 57 0.0 0.0 0.00 0.00 0.00 100 1018.4
20260510115518 73 57 0.0 0.0 0.00 0.00 0.00 100 1018.4
20260510115018 73 57 0.0 0.0 0.00 0.00 0.00 100 1018.3
20260510114518 73 57 0.0 0.0 0.00 0.00 0.00 100 1018.3
20260510114018 73 57 0.0 0.0 0.00 0.00 0.00 100 1018.3
20260510113740 73 57 0.0 0.0 0.00 0.00 0.00 100 1018.0
20260510113518 73 57 0.0 0.0 0.00 0.00 0.00 100 1018.0
20260510113018 72 57 0.0 0.0 0.00 0.00 0.00 100 1017.9
20260510112518 72 57 0.0 0.0 0.00 0.00 0.00 100 1017.8
20260510112018 72 57 0.0 0.0 0.00 0.00 0.00 100 1017.7
20260510111518 72 57 0.0 0.0 0.00 0.00 0.00 100 1017.5
20260510111018 72 57 0.0 0.0 0.00 0.00 0.00 100 1017.4
20260510110518 72 57 0.0 0.0 0.00 0.00 0.00 100 1017.2
20260510110116 72 57 0.0 0.0 0.00 0.00 0.00 100 1017.0
20260510110018 72 57 0.0 0.0 0.00 0.00 0.00 100 1017.0
20260510105518 72 57 0.0 0.0 0.00 0.00 0.00 100 1017.0
20260510105018 72 57 0.0 0.0 0.00 0.00 0.00 100 1016.8
20260510104518 72 57 0.0 0.0 0.00 0.00 0.00 100 1016.7
20260510104253 73 57 0.0 0.0 0.00 0.00 0.00 100 1016.6
20260510104018 73 57 0.0 0.0 0.00 0.00 0.00 100 1016.6
20260510103720 73 57 0.0 0.9 0.00 0.00 0.00 100 1016.6
20260510103519 73 57 0.0 0.9 0.00 0.00 0.00 100 1016.6
20260510103019 73 104 0.0 3.5 0.00 0.00 0.00 100 1016.5
20260510102730 72 92 2.6 6.1 0.00 0.00 0.00 100 1016.2
20260510102656 72 92 2.6 6.1 0.00 0.00 0.00 100 1016.2
20260510102519 72 92 2.6 6.1 0.00 0.00 0.00 100 1016.2
20260510102151 72 146 1.7 5.2 0.00 0.00 0.00 100 1016.3
20260510102019 72 146 1.7 5.2 0.00 0.00 0.00 100 1016.3
20260510101557 72 170 3.5 5.2 0.00 0.00 0.00 100 1016.3
20260510101519 72 170 3.5 5.2 0.00 0.00 0.00 100 1016.3
20260510101019 71 165 1.7 4.3 0.00 0.00 0.00 100 1016.3
20260510100731 71 181 2.6 3.5 0.00 0.00 0.00 100 1016.4
20260510100519 71 181 2.6 3.5 0.00 0.00 0.00 100 1016.4
20260510100019 70 178 1.7 1.7 0.00 0.00 0.00 100 1016.5
20260510095519 70 189 1.7 2.6 0.00 0.00 0.00 100 1016.5
20260510095019 70 181 0.9 2.6 0.00 0.00 0.00 100 1016.5
20260510094519 70 164 0.9 0.9 0.00 0.00 0.00 100 1016.6
20260510094019 70 136 0.0 0.9 0.00 0.00 0.00 100 1016.6
20260510093519 70 153 0.9 0.9 0.00 0.00 0.00 100 1016.7
20260510093019 70 113 0.0 1.7 0.00 0.00 0.00 100 1016.7
20260510092519 70 122 0.0 0.9 0.00 0.00 0.00 100 1016.7
20260510092019 70 154 0.0 0.0 0.00 0.00 0.00 100 1016.7
20260510091519 70 154 0.0 0.9 0.00 0.00 0.00 100 1016.7
20260510091019 71 151 0.0 0.0 0.00 0.00 0.00 100 1016.7
20260510090603 70 151 0.0 0.0 0.00 0.00 0.00 100 1016.7
20260510090519 70 151 0.0 0.0 0.00 0.00 0.00 100 1016.7
20260510090019 71 151 0.0 0.0 0.00 0.00 0.00 100 1016.6
20260510085519 71 151 0.0 0.9 0.00 0.00 0.00 100 1016.6
20260510085331 71 78 0.0 0.9 0.00 0.00 0.00 100 1016.5
20260510085019 71 78 0.0 0.9 0.00 0.00 0.00 100 1016.5
20260510084633 71 163 0.9 0.9 0.00 0.00 0.00 100 1016.5
20260510084519 71 163 0.9 0.9 0.00 0.00 0.00 100 1016.5
20260510084019 71 50 0.0 0.9 0.00 0.00 0.00 100 1016.5
20260510083731 71 80 0.0 0.9 0.00 0.00 0.00 100 1016.5
20260510083519 71 80 0.0 0.9 0.00 0.00 0.00 100 1016.5
20260510083019 71 78 0.0 0.0 0.00 0.00 0.00 100 1016.6
20260510082712 71 78 0.0 0.0 0.00 0.00 0.00 100 1016.7
20260510082519 71 78 0.0 0.0 0.00 0.00 0.00 100 1016.6
20260510082201 71 78 0.0 0.0 0.00 0.00 0.00 100 1016.6
20260510082019 71 78 0.0 0.0 0.00 0.00 0.00 100 1016.6
20260510081519 71 78 0.0 0.0 0.00 0.00 0.00 100 1016.7
20260510081154 72 78 0.0 0.0 0.00 0.00 0.00 100 1016.7
20260510081019 72 78 0.0 0.0 0.00 0.00 0.00 100 1016.7
20260510080519 72 78 0.0 0.9 0.00 0.00 0.00 100 1016.6
20260510080057 72 70 0.0 1.7 0.00 0.00 0.00 100 1016.6
20260510080019 72 70 0.0 1.7 0.00 0.00 0.00 100 1016.6
20260510075823 72 104 0.9 1.7 0.00 0.00 0.00 100 1016.7
20260510075519 72 104 0.9 1.7 0.00 0.00 0.00 100 1016.7
20260510075309 72 99 0.9 1.7 0.00 0.00 0.00 100 1016.7
20260510075019 72 99 0.9 1.7 0.00 0.00 0.00 100 1016.7
20260510074519 72 108 0.9 0.9 0.00 0.00 0.00 100 1016.7
20260510074122 73 97 0.9 0.9 0.00 0.00 0.00 100 1016.8
20260510074019 73 97 0.9 0.9 0.00 0.00 0.00 100 1016.8
20260510073519 73 67 0.0 0.9 0.00 0.00 0.00 100 1016.8
20260510073019 73 67 0.9 3.5 0.00 0.00 0.00 100 1016.9
20260510072519 73 104 0.0 0.0 0.00 0.00 0.00 100 1016.8
20260510072019 73 227 0.0 0.0 0.00 0.00 0.00 100 1016.8
20260510071758 73 227 0.0 0.0 0.00 0.00 0.00 100 1016.9
20260510071519 73 227 0.0 0.0 0.00 0.00 0.00 100 1016.9
20260510071406 73 227 0.0 0.0 0.00 0.00 0.00 100 1016.8
20260510071019 73 227 0.0 0.0 0.00 0.00 0.00 100 1016.8
20260510070619 73 227 0.0 0.0 0.00 0.00 0.00 100 1016.8
20260510070519 73 227 0.0 0.0 0.00 0.00 0.00 100 1016.8
20260510070128 73 227 0.0 0.0 0.00 0.00 0.00 100 1016.8
20260510070019 73 227 0.0 0.0 0.00 0.00 0.00 100 1016.8
20260510065735 73 227 0.0 0.0 0.00 0.00 0.00 100 1016.9
20260510065519 73 227 0.0 0.0 0.00 0.00 0.00 100 1016.9
20260510065409 73 227 0.0 0.0 0.00 0.00 0.00 100 1017.0
20260510065019 73 227 0.0 0.0 0.00 0.00 0.00 100 1017.0
20260510064802 74 227 0.0 0.0 0.00 0.00 0.00 100 1016.9
20260510064520 74 227 0.0 0.0 0.00 0.00 0.00 100 1016.9
20260510064243 74 227 0.0 0.0 0.00 0.00 0.00 100 1017.0
20260510064019 74 227 0.0 0.0 0.00 0.00 0.00 100 1017.0
20260510063519 74 227 0.0 0.0 0.00 0.00 0.00 100 1017.0
20260510063225 73 217 0.0 0.9 0.00 0.00 0.00 100 1017.1
20260510063155 73 227 0.0 0.0 0.00 0.00 0.00 100 1017.0
20260510063020 73 227 0.0 0.0 0.00 0.00 0.00 100 1017.0
20260510062520 73 217 0.0 0.9 0.00 0.00 0.00 100 1017.1
20260510062321 74 194 0.0 0.0 0.00 0.00 0.00 100 1017.1
20260510062020 74 194 0.0 0.0 0.00 0.00 0.00 100 1017.1
20260510061633 74 194 0.0 0.0 0.00 0.00 0.00 100 1017.1
20260510061520 74 194 0.0 0.0 0.00 0.00 0.00 100 1017.1
20260510061515 73 194 0.0 0.0 0.00 0.00 0.00 100 1017.2
20260510061235 73 194 0.0 0.0 0.00 0.00 0.00 100 1017.2
20260510061020 73 194 0.0 0.0 0.00 0.00 0.00 100 1017.2
20260510060840 73 194 0.0 0.0 0.00 0.00 0.00 100 1017.2
20260510060520 73 194 0.0 0.0 0.00 0.00 0.00 100 1017.2
20260510060129 73 194 0.0 0.0 0.00 0.00 0.00 100 1017.3
20260510060020 73 194 0.0 0.0 0.00 0.00 0.00 100 1017.3
20260510055848 74 194 0.0 0.0 0.00 0.00 0.00 100 1017.3
20260510055659 74 194 0.0 0.0 0.00 0.00 0.00 100 1017.3
20260510055520 74 194 0.0 0.0 0.00 0.00 0.00 100 1017.3
20260510055133 74 194 0.0 0.0 0.00 0.00 0.00 100 1017.4
20260510055020 74 194 0.0 0.0 0.00 0.00 0.00 100 1017.4
20260510054755 73 194 0.0 0.0 0.00 0.00 0.00 100 1017.4
20260510054520 73 194 0.0 0.0 0.00 0.00 0.00 100 1017.4
20260510054020 73 194 0.0 0.0 0.00 0.00 0.00 100 1017.4
20260510053520 73 194 0.0 0.0 0.00 0.00 0.00 100 1017.5
20260510053410 74 194 0.0 0.0 0.00 0.00 0.00 100 1017.6
20260510053324 74 194 0.0 0.0 0.00 0.00 0.00 100 1017.6
20260510053020 74 194 0.0 0.0 0.00 0.00 0.00 100 1017.6
20260510052653 74 303 0.0 0.0 0.00 0.00 0.00 100 1017.7
20260510052520 74 303 0.0 0.0 0.00 0.00 0.00 100 1017.7
20260510052020 74 303 0.0 0.0 0.00 0.00 0.00 100 1017.7
20260510051520 74 303 0.0 0.0 0.00 0.00 0.00 100 1017.8
20260510051020 74 303 0.0 0.0 0.00 0.00 0.00 100 1017.9
20260510050615 73 303 0.0 0.0 0.00 0.00 0.00 100 1018.0
20260510050520 73 303 0.0 0.0 0.00 0.00 0.00 100 1017.9
20260510050231 73 303 0.0 0.0 0.00 0.00 0.00 100 1017.9
20260510050020 73 303 0.0 0.0 0.00 0.00 0.00 100 1017.9
20260510045617 73 303 0.0 0.0 0.00 0.00 0.00 100 1018.1
20260510045520 73 303 0.0 0.0 0.00 0.00 0.00 100 1018.0
20260510045020 73 303 0.0 0.0 0.00 0.00 0.00 100 1018.0
20260510044813 73 303 0.0 0.0 0.00 0.00 0.00 100 1018.1
20260510044520 73 303 0.0 0.0 0.00 0.00 0.00 100 1018.1
20260510044115 73 303 0.0 0.0 0.00 0.00 0.00 100 1018.2
20260510044020 73 303 0.0 0.0 0.00 0.00 0.00 100 1018.1
20260510043520 73 303 0.0 0.0 0.00 0.00 0.00 100 1018.2
20260510043457 73 303 0.0 0.0 0.00 0.00 0.00 100 1018.3
20260510043020 73 303 0.0 0.0 0.00 0.00 0.00 100 1018.3
20260510042520 72 303 0.0 0.0 0.00 0.00 0.00 100 1018.2
20260510042020 72 303 0.0 0.0 0.00 0.00 0.00 100 1018.2
20260510041520 72 303 0.0 0.0 0.00 0.00 0.00 100 1018.2
20260510041151 72 303 0.0 0.0 0.00 0.00 0.00 100 1018.2
20260510041020 72 303 0.0 0.0 0.00 0.00 0.00 100 1018.2
20260510040930 72 303 0.0 0.0 0.00 0.00 0.00 100 1018.2
20260510040520 72 303 0.0 0.0 0.00 0.00 0.00 100 1018.2
20260510040020 72 303 0.0 0.0 0.00 0.00 0.00 100 1018.2
20260510035520 72 303 0.0 0.0 0.00 0.00 0.00 100 1018.1
20260510035223 73 303 0.0 0.0 0.00 0.00 0.00 100 1018.0
20260510035020 73 303 0.0 0.0 0.00 0.00 0.00 100 1018.0
20260510034615 73 303 0.0 0.0 0.00 0.00 0.00 100 1018.0
20260510034520 73 303 0.0 0.0 0.00 0.00 0.00 100 1018.0
20260510034115 73 303 0.0 0.0 0.00 0.00 0.00 100 1018.0
20260510034020 73 303 0.0 0.0 0.00 0.00 0.00 100 1018.0
20260510033520 73 303 0.0 0.0 0.00 0.00 0.00 100 1018.0
20260510033343 73 303 0.0 0.0 0.00 0.00 0.00 100 1018.0
20260510033020 73 303 0.0 0.0 0.00 0.00 0.00 100 1017.9
20260510032520 73 303 0.0 0.0 0.00 0.00 0.00 100 1018.0
20260510032518 73 303 0.0 0.0 0.00 0.00 0.00 100 1017.9
20260510032020 73 303 0.0 0.0 0.00 0.00 0.00 100 1017.9
20260510031759 73 303 0.0 0.0 0.00 0.00 0.00 100 1017.9
20260510031557 73 303 0.0 0.0 0.00 0.00 0.00 100 1017.8
20260510031520 73 303 0.0 0.0 0.00 0.00 0.00 100 1017.9
20260510031458 73 303 0.0 0.0 0.00 0.00 0.00 100 1017.8
20260510031020 73 303 0.0 0.0 0.00 0.00 0.00 100 1017.8
20260510030520 73 303 0.0 0.0 0.00 0.00 0.00 100 1017.9
20260510030057 74 303 0.0 0.0 0.00 0.00 0.00 100 1017.7
20260510030020 74 303 0.0 0.0 0.00 0.00 0.00 100 1017.7
20260510025520 74 303 0.0 0.0 0.00 0.00 0.00 100 1017.7
20260510025020 74 303 0.0 0.0 0.00 0.00 0.00 100 1017.7
20260510024520 74 303 0.0 0.0 0.00 0.00 0.00 100 1017.7
20260510024020 74 303 0.0 0.0 0.00 0.00 0.00 100 1017.7
20260510024002 74 303 0.0 0.0 0.00 0.00 0.00 100 1017.6
20260510023709 74 303 0.0 0.0 0.00 0.00 0.00 100 1017.5
20260510023521 74 303 0.0 0.0 0.00 0.00 0.00 100 1017.6
20260510023021 74 303 0.0 0.0 0.00 0.00 0.00 100 1017.5
20260510022959 74 303 0.0 0.0 0.00 0.00 0.00 100 1017.5
20260510022521 74 303 0.0 0.0 0.00 0.00 0.00 100 1017.5
20260510022021 74 303 0.0 0.0 0.00 0.00 0.00 100 1017.4
20260510022012 74 303 0.0 0.0 0.00 0.00 0.00 100 1017.3
20260510021521 74 303 0.0 0.0 0.00 0.00 0.00 100 1017.3
20260510021021 74 303 0.0 0.0 0.00 0.00 0.00 100 1017.3
20260510020749 75 303 0.0 0.0 0.00 0.00 0.00 100 1017.2
20260510020521 75 303 0.0 0.0 0.00 0.00 0.00 100 1017.2
20260510020021 75 303 0.0 0.0 0.00 0.00 0.00 100 1017.2
20260510015521 75 303 0.0 0.0 0.00 0.00 0.00 100 1017.1
20260510015021 75 303 0.0 0.0 0.00 0.00 0.00 100 1017.0
20260510014616 75 303 0.0 0.0 0.00 0.00 0.00 100 1016.9
20260510014521 75 303 0.0 0.0 0.00 0.00 0.00 100 1016.9
20260510014052 76 303 0.0 0.0 0.00 0.00 0.00 100 1016.9
20260510014021 75 303 0.0 0.0 0.00 0.00 0.00 100 1016.9
20260510013616 76 303 0.0 0.0 0.00 0.00 0.00 100 1016.8
20260510013521 76 303 0.0 0.0 0.00 0.00 0.00 100 1016.9
20260510013021 76 303 0.0 0.0 0.00 0.00 0.00 100 1016.8
20260510012603 77 303 0.0 0.0 0.00 0.00 0.00 100 1016.8
20260510012521 76 303 0.0 0.0 0.00 0.00 0.00 100 1016.8
20260510012021 77 303 0.0 0.0 0.00 0.00 0.00 100 1016.8
20260510011831 77 303 0.0 0.0 0.00 0.00 0.00 100 1016.8
20260510011521 77 303 0.0 0.0 0.00 0.00 0.00 100 1016.8
20260510011319 78 303 0.0 0.0 0.00 0.00 0.00 100 1016.7
20260510011147 77 303 0.0 0.0 0.00 0.00 0.00 100 1016.7
20260510011021 77 303 0.0 0.0 0.00 0.00 0.00 100 1016.7
20260510010521 78 303 0.0 0.0 0.00 0.00 0.00 100 1016.7
20260510010153 80 303 0.0 0.0 0.00 0.00 0.00 100 1016.4
20260510010021 78 303 0.0 0.0 0.00 0.00 0.00 100 1016.6
20260510005619 80 303 0.0 0.9 0.00 0.00 0.00 100 1016.3
20260510005521 79 303 0.0 0.0 0.00 0.00 0.00 100 1016.5
20260510005500 80 315 0.0 3.5 0.00 0.00 0.00 100 1016.1
20260510005325 80 315 0.0 3.5 0.00 0.00 0.00 100 1016.1
20260510005021 80 303 0.0 0.0 0.00 0.00 0.00 100 1016.4
20260510004813 80 272 0.0 3.5 0.00 0.00 0.00 100 1016.0
20260510004521 80 303 0.0 0.9 0.00 0.00 0.00 100 1016.3
20260510004103 80 272 0.0 3.5 0.00 0.00 0.00 100 1016.0
20260510004021 80 315 0.0 3.5 0.00 0.00 0.00 100 1016.1
20260510003521 80 272 0.0 3.5 0.00 0.00 0.00 100 1016.0
20260510003445 81 246 2.6 3.5 0.00 0.00 0.00 100 1015.9
20260510003021 81 257 2.6 4.3 0.00 0.00 0.00 100 1015.9
20260510002521 81 246 2.6 3.5 0.00 0.00 0.00 100 1015.9
20260510002021 81 226 1.7 5.2 0.00 0.00 0.00 100 1015.8
20260510001521 82 254 2.6 4.3 0.00 0.00 0.00 100 1015.9
20260510001021 82 275 1.7 4.3 0.00 0.00 0.00 100 1015.9
20260510000521 82 277 1.7 3.5 0.00 0.00 0.00 100 1015.8
20260510000021 82 279 0.9 4.3 0.00 0.00 0.00 100 1015.8
20260509235932 83 271 1.7 3.5 0.00 0.00 0.00 100 1015.8
20260509235521 83 271 1.7 3.5 0.00 0.00 0.00 100 1015.8
20260509235021 83 268 1.7 4.3 0.00 0.00 0.00 100 1015.7
20260509234746 83 278 3.5 4.3 0.00 0.00 0.00 100 1015.6
20260509234521 83 277 1.7 5.2 0.00 0.00 0.00 100 1015.7
20260509234414 83 226 2.6 5.2 0.00 0.00 0.00 100 1015.5
20260509234021 83 278 3.5 4.3 0.00 0.00 0.00 100 1015.6
20260509233706 83 226 2.6 5.2 0.00 0.00 0.00 100 1015.5
20260509233521 83 226 2.6 5.2 0.00 0.00 0.00 100 1015.5
20260509233128 84 253 0.9 7.0 0.00 0.00 0.00 100 1015.5
20260509233021 84 253 0.9 7.0 0.00 0.00 0.00 100 1015.5
20260509232521 84 272 4.3 9.6 0.00 0.00 0.00 100 1015.5
20260509232021 84 237 0.9 7.0 0.00 0.00 0.00 100 1015.5
20260509231522 85 268 4.3 8.7 0.00 0.00 0.00 100 1015.4
20260509231514 85 279 2.6 8.7 0.00 0.00 0.00 100 1015.3
20260509231021 85 279 2.6 8.7 0.00 0.00 0.00 100 1015.3
20260509230521 85 240 5.2 7.0 0.00 0.00 0.00 100 1015.2
20260509230420 86 271 7.0 9.6 0.00 0.00 0.00 100 1015.1
20260509230210 86 271 7.0 9.6 0.00 0.00 0.00 100 1015.1
20260509230021 86 271 7.0 9.6 0.00 0.00 0.00 100 1015.1
20260509225521 86 262 7.8 8.7 0.00 0.00 0.00 100 1015.1
20260509225430 86 289 1.7 9.6 0.00 0.00 0.00 100 1015.0
20260509225021 86 289 1.7 9.6 0.00 0.00 0.00 100 1015.0
20260509224604 87 244 8.7 11.3 0.00 0.00 0.00 100 1015.0
20260509224521 87 244 8.7 11.3 0.00 0.00 0.00 100 1015.0
20260509224408 88 248 8.7 10.4 0.00 0.00 0.00 100 1015.0
20260509224149 87 187 0.9 8.7 0.00 0.00 0.00 100 1015.0
20260509224021 87 187 0.9 8.7 0.00 0.00 0.00 100 1015.0
20260509223522 87 223 8.7 11.3 0.00 0.00 0.00 100 1014.9
20260509223022 87 236 8.7 10.4 0.00 0.00 0.00 100 1015.0
20260509222622 88 248 8.7 10.4 0.00 0.00 0.00 100 1015.0
20260509222522 88 248 8.7 10.4 0.00 0.00 0.00 100 1015.0
20260509222149 88 244 1.7 9.6 0.00 0.00 0.00 100 1014.9
20260509222022 88 244 1.7 9.6 0.00 0.00 0.00 100 1014.9
20260509221634 88 281 7.8 9.6 0.00 0.00 0.00 100 1014.9
20260509221522 88 281 7.8 9.6 0.00 0.00 0.00 100 1014.9
20260509221150 89 240 8.7 9.6 0.00 0.00 0.00 100 1014.9
20260509221022 89 240 8.7 9.6 0.00 0.00 0.00 100 1014.9
20260509220522 88 251 5.2 11.3 0.00 0.00 0.00 100 1014.9
20260509220022 88 253 4.3 11.3 0.00 0.00 0.00 100 1014.8
20260509215522 89 254 4.3 12.2 0.00 0.00 0.00 100 1014.7
20260509215022 89 212 0.0 11.3 0.00 0.00 0.00 100 1014.7
20260509214522 90 215 5.2 9.6 0.00 0.00 0.00 100 1014.6
20260509214122 90 257 7.0 10.4 0.00 0.00 0.00 100 1014.6
20260509214022 90 257 7.0 10.4 0.00 0.00 0.00 100 1014.6
20260509213740 90 234 7.0 13.0 0.00 0.00 0.00 100 1014.6
20260509213703 90 234 7.0 13.0 0.00 0.00 0.00 100 1014.6
20260509213522 90 234 7.0 13.0 0.00 0.00 0.00 100 1014.6
20260509213118 91 244 11.3 13.0 0.00 0.00 0.00 100 1014.6
20260509213050 92 225 9.6 12.2 0.00 0.00 0.00 100 1014.5
20260509213022 91 244 11.3 13.0 0.00 0.00 0.00 100 1014.6
20260509212652 91 261 8.7 14.8 0.00 0.00 0.00 100 1014.6
20260509212522 91 261 8.7 14.8 0.00 0.00 0.00 100 1014.6
20260509212022 90 233 5.2 11.3 0.00 0.00 0.00 100 1014.5
20260509211639 90 267 9.6 13.9 0.00 0.00 0.00 100 1014.5
20260509211522 90 267 9.6 13.9 0.00 0.00 0.00 100 1014.5
20260509211022 91 202 7.8 14.8 0.00 0.00 0.00 100 1014.5
20260509210522 92 225 9.6 12.2 0.00 0.00 0.00 100 1014.5
20260509210236 92 267 7.8 13.0 0.00 0.00 0.00 100 1014.6
20260509210022 91 232 4.3 9.6 0.00 0.00 0.00 100 1014.5
20260509205652 92 271 8.7 13.9 0.00 0.00 0.00 100 1014.5
20260509205522 92 271 8.7 13.9 0.00 0.00 0.00 100 1014.5
20260509205022 92 270 5.2 12.2 0.00 0.00 0.00 100 1014.6
20260509204627 93 243 9.6 14.8 0.00 0.00 0.00 100 1014.6
20260509204522 93 243 9.6 14.8 0.00 0.00 0.00 100 1014.6
20260509204121 92 267 7.8 13.0 0.00 0.00 0.00 100 1014.6
20260509204022 92 267 7.8 13.0 0.00 0.00 0.00 100 1014.6
20260509203849 91 246 10.4 14.8 0.00 0.00 0.00 100 1014.7
20260509203647 91 246 10.4 14.8 0.00 0.00 0.00 100 1014.7
20260509203522 91 246 10.4 14.8 0.00 0.00 0.00 100 1014.7
20260509203137 93 205 9.6 12.2 0.00 0.00 0.00 100 1014.7
20260509203102 93 244 3.5 14.8 0.00 0.00 0.00 100 1014.6
20260509203022 93 205 9.6 12.2 0.00 0.00 0.00 100 1014.7
20260509202630 93 244 3.5 14.8 0.00 0.00 0.00 100 1014.6
20260509202523 93 244 3.5 14.8 0.00 0.00 0.00 100 1014.6
20260509202141 93 201 7.8 13.9 0.00 0.00 0.00 100 1014.7
20260509202022 93 201 7.8 13.9 0.00 0.00 0.00 100 1014.7
20260509201639 93 253 8.7 15.6 0.00 0.00 0.00 100 1014.7
20260509201522 93 253 8.7 15.6 0.00 0.00 0.00 100 1014.7
20260509201022 92 232 11.3 13.9 0.00 0.00 0.00 100 1014.8
20260509200522 93 251 9.6 14.8 0.00 0.00 0.00 100 1014.8
20260509200116 94 261 6.1 13.9 0.00 0.00 0.00 100 1014.7
20260509200022 94 261 6.1 13.9 0.00 0.00 0.00 100 1014.7
20260509195522 94 271 7.0 13.9 0.00 0.00 0.00 100 1014.9
20260509195236 94 251 7.0 15.6 0.00 0.00 0.00 100 1014.8
20260509195022 94 251 7.0 15.6 0.00 0.00 0.00 100 1014.8
20260509194522 94 279 5.2 15.6 0.00 0.00 0.00 100 1014.9
20260509194208 92 250 11.3 13.0 0.00 0.00 0.00 100 1015.1
20260509194022 92 250 11.3 13.0 0.00 0.00 0.00 100 1015.1
20260509193522 93 237 8.7 14.8 0.00 0.00 0.00 100 1015.1
20260509193249 93 248 10.4 14.8 0.00 0.00 0.00 100 1015.1
20260509193022 93 248 10.4 14.8 0.00 0.00 0.00 100 1015.1
20260509192654 93 255 7.8 13.0 0.00 0.00 0.00 100 1015.1
20260509192613 94 201 10.4 14.8 0.00 0.00 0.00 100 1015.1
20260509192522 93 255 7.8 13.0 0.00 0.00 0.00 100 1015.1
20260509192248 94 201 10.4 14.8 0.00 0.00 0.00 100 1015.1
20260509192022 94 201 10.4 14.8 0.00 0.00 0.00 100 1015.1
20260509191646 95 236 8.7 14.8 0.00 0.00 0.00 100 1015.2
20260509191522 95 236 8.7 14.8 0.00 0.00 0.00 100 1015.2
20260509191250 95 225 4.3 12.2 0.00 0.00 0.00 100 1015.3
20260509191022 95 225 4.3 12.2 0.00 0.00 0.00 100 1015.3
20260509190522 95 230 6.1 14.8 0.00 0.00 0.00 100 1015.4
20260509190324 94 246 6.1 16.5 0.00 0.00 0.00 100 1015.5
20260509190022 93 265 3.5 16.5 0.00 0.00 0.00 100 1015.6
20260509185749 93 319 4.3 15.6 0.00 0.00 0.00 100 1015.6
20260509185522 93 319 4.3 15.6 0.00 0.00 0.00 100 1015.6
20260509185251 94 225 5.2 11.3 0.00 0.00 0.00 100 1015.6
20260509185022 94 225 5.2 11.3 0.00 0.00 0.00 100 1015.6
20260509184657 94 246 6.1 16.5 0.00 0.00 0.00 100 1015.5
20260509184522 94 246 6.1 16.5 0.00 0.00 0.00 100 1015.5
20260509184239 94 153 6.1 15.6 0.00 0.00 0.00 100 1015.6
20260509184236 94 234 12.2 13.0 0.00 0.00 0.00 100 1015.5
20260509184234 95 247 7.8 12.2 0.00 0.00 0.00 100 1015.5
20260509184022 94 234 12.2 13.0 0.00 0.00 0.00 100 1015.5
20260509183522 94 274 7.0 16.5 0.00 0.00 0.00 100 1015.5
20260509183148 94 217 3.5 13.9 0.00 0.00 0.00 100 1015.6
20260509183022 94 217 3.5 13.9 0.00 0.00 0.00 100 1015.6
20260509182754 94 153 6.1 15.6 0.00 0.00 0.00 100 1015.6
20260509182522 94 153 6.1 15.6 0.00 0.00 0.00 100 1015.6
20260509182150 95 247 7.8 12.2 0.00 0.00 0.00 100 1015.5
20260509182022 95 247 7.8 12.2 0.00 0.00 0.00 100 1015.5
20260509181935 95 258 8.7 16.5 0.00 0.00 0.00 100 1015.6
20260509181631 95 258 8.7 16.5 0.00 0.00 0.00 100 1015.6
20260509181522 95 258 8.7 16.5 0.00 0.00 0.00 100 1015.6
20260509181244 93 195 6.1 13.9 0.00 0.00 0.00 100 1015.6
20260509181022 93 195 6.1 13.9 0.00 0.00 0.00 100 1015.6
20260509180643 94 234 7.0 12.2 0.00 0.00 0.00 100 1015.6
20260509180628 95 237 10.4 15.6 0.00 0.00 0.00 100 1015.5
20260509180548 96 257 7.0 13.0 0.00 0.00 0.00 100 1015.6
20260509180522 94 234 7.0 12.2 0.00 0.00 0.00 100 1015.6
20260509180022 95 237 10.4 15.6 0.00 0.00 0.00 100 1015.5
20260509175522 96 257 7.0 13.0 0.00 0.00 0.00 100 1015.6
20260509175149 95 253 7.8 13.9 0.00 0.00 0.00 100 1015.7
20260509175144 94 199 6.1 13.0 0.00 0.00 0.00 100 1015.7
20260509175022 95 253 7.8 13.9 0.00 0.00 0.00 100 1015.7
20260509174639 94 199 6.1 13.0 0.00 0.00 0.00 100 1015.7
20260509174523 94 199 6.1 13.0 0.00 0.00 0.00 100 1015.7
20260509174154 94 244 7.0 12.2 0.00 0.00 0.00 100 1015.8
20260509174148 93 232 7.0 12.2 0.00 0.00 0.00 100 1015.8
20260509174023 93 232 7.0 12.2 0.00 0.00 0.00 100 1015.8
20260509173523 94 213 8.7 12.2 0.00 0.00 0.00 100 1015.8
20260509173023 94 262 7.0 11.3 0.00 0.00 0.00 100 1015.8
20260509172737 94 244 7.0 12.2 0.00 0.00 0.00 100 1015.8
20260509172705 94 244 7.0 12.2 0.00 0.00 0.00 100 1015.8
20260509172523 94 244 7.0 12.2 0.00 0.00 0.00 100 1015.8
20260509172235 94 243 7.8 14.8 0.00 0.00 0.00 100 1015.7
20260509172023 94 243 7.8 14.8 0.00 0.00 0.00 100 1015.7
20260509171931 93 205 2.6 7.8 0.00 0.00 0.00 100 1015.8
20260509171630 94 281 3.5 11.3 0.00 0.00 0.00 100 1015.8
20260509171523 94 281 3.5 11.3 0.00 0.00 0.00 100 1015.8
20260509171236 93 205 2.6 7.8 0.00 0.00 0.00 100 1015.8
20260509171157 93 205 2.6 7.8 0.00 0.00 0.00 100 1015.8
20260509171023 93 205 2.6 7.8 0.00 0.00 0.00 100 1015.8
20260509170732 92 226 7.0 9.6 0.00 0.00 0.00 100 1016.0
20260509170656 92 226 7.0 9.6 0.00 0.00 0.00 100 1016.0
20260509170652 94 217 7.8 10.4 0.00 0.00 0.00 100 1015.9
20260509170523 92 226 7.0 9.6 0.00 0.00 0.00 100 1016.0
20260509170023 94 217 7.8 10.4 0.00 0.00 0.00 100 1015.9
20260509165523 94 277 5.2 11.3 0.00 0.00 0.00 100 1016.0
20260509165234 93 255 8.7 13.0 0.00 0.00 0.00 100 1016.1
20260509165023 93 255 8.7 13.0 0.00 0.00 0.00 100 1016.1
20260509164523 93 241 13.0 14.8 0.00 0.00 0.00 100 1016.2
20260509164256 92 246 4.3 12.2 0.00 0.00 0.00 100 1016.3
20260509164023 92 246 4.3 12.2 0.00 0.00 0.00 100 1016.3
20260509163523 91 237 6.1 10.4 0.00 0.00 0.00 100 1016.4
20260509163244 92 237 5.2 11.3 0.00 0.00 0.00 100 1016.3
20260509163238 92 206 7.0 13.9 0.00 0.00 0.00 100 1016.4
20260509163023 92 206 7.0 13.9 0.00 0.00 0.00 100 1016.4
20260509162650 92 237 5.2 11.3 0.00 0.00 0.00 100 1016.3
20260509162523 92 237 5.2 11.3 0.00 0.00 0.00 100 1016.3
20260509162144 91 184 4.3 13.9 0.00 0.00 0.00 100 1016.4
20260509162108 91 216 3.5 10.4 0.00 0.00 0.00 100 1016.5
20260509162023 91 184 4.3 13.9 0.00 0.00 0.00 100 1016.4
20260509161523 91 216 3.5 10.4 0.00 0.00 0.00 100 1016.5
20260509161203 92 246 7.8 9.6 0.00 0.00 0.00 100 1016.7
20260509161023 92 194 1.7 7.8 0.00 0.00 0.00 100 1016.6
20260509160523 92 246 7.8 9.6 0.00 0.00 0.00 100 1016.7
20260509160319 91 267 2.6 9.6 0.00 0.00 0.00 100 1016.7
20260509160023 91 206 4.3 10.4 0.00 0.00 0.00 100 1016.8
20260509155724 91 267 2.6 9.6 0.00 0.00 0.00 100 1016.7
20260509155523 91 267 2.6 9.6 0.00 0.00 0.00 100 1016.7
20260509155023 91 237 3.5 7.8 0.00 0.00 0.00 100 1016.8
20260509154735 89 206 7.0 7.8 0.00 0.00 0.00 100 1016.8
20260509154523 89 206 7.0 7.8 0.00 0.00 0.00 100 1016.8
20260509154235 88 149 3.5 7.8 0.00 0.00 0.00 100 1016.8
20260509154023 88 149 3.5 7.8 0.00 0.00 0.00 100 1016.8
20260509153726 89 158 2.6 9.6 0.00 0.00 0.00 100 1016.8
20260509153523 89 158 2.6 9.6 0.00 0.00 0.00 100 1016.8